Tracking 29892 objects as of 21-Nov-2024
HD Live streaming from Space Station
objects crossing your sky now

COSMOS 1275 DEB

Track COSMOS 1275 DEB now!
10-day predictions


NORAD ID: 12771
Int'l Code: 1981-053DQ
Perigee: 901.3 km
Apogee: 1,130.9 km
Inclination: 82.9 °
Period: 105.3 minutes
Semi major axis: 7387 km
RCS: 0.0434 m2 (small)
Launch date: June 4, 1981
Source: Commonwealth of Independent States (former USSR) (CIS)
Launch site: PLESETSK MISSILE AND SPACE COMPLEX (PKMTR)

Note: This is SATELLITE DEBRIS
Your satellite tracking list
Your tracking list is empty




NASA's NSSDC Master Catalog

Two Line Element Set (TLE):
1 12771U 81053DQ  24325.62314160  .00001595  00000-0  17311-2 0  9999
2 12771  82.8696 191.7314 0155444 291.0861  96.3121 13.67392198141620
Source of the keplerian elements: AFSPC